Regional Weather Roundup
Issued by NWS

Home | Current Version | Previous Version | Graphics & Text | Print | Product List | Glossary On
Versions: 1 2 3 4 5 6 7 8 9 10 11 12 13 14 15 16 17 18 19 20 21 22 23 24 25 26 27 28 29 30 31 32 33 34 35 36 37 38 39 40 41 42 43 44 45 46 47 48 49 50
783
ASUS45 KABQ 281801
RWRNM
NEW MEXICO REGIONAL WEATHER ROUNDUP
NATIONAL WEATHER SERVICE ALBUQUERQUE NM
1200 PM MDT WED JUN 28 2017

NOTE: "FAIR" MEANS FEW OR NO CLOUDS BELOW 12,000 FEET AGL WITH NO
       SIGNIFICANT WEATHER OR OBSTRUCTIONS TO VISION.

      THIS PRODUCT IS RELEASED AS TWO VERSIONS.  ONE VERSION NEAR
      THE TOP OF THE HOUR CONTAINING PRELIMINARY DATA FROM ALBUQUERQUE
      AND OTHER STATIONS.  A FINAL VERSION WITH ADDITIONAL DATA IS
      ISSUED ABOUT 10 MINUTES AFTER THE HOUR.

NMZ501-503-504-510>518-281900-
NORTHWEST PLATEAU/NORTHCENTRAL MOUNTAINS

CITY           SKY/WX    TMP DP  RH WIND       PRES   REMARKS
FARMINGTON     FAIR      86  20   9 VRB6      30.01F
6HR MIN TEMP:  49; 6HR MAX TEMP:  86;

LOS ALAMOS     FAIR      79  22  12 S9G17     30.15F
SANTA FE       FAIR      85  22  10 W17       30.09F
6HR MIN TEMP:  55; 6HR MAX TEMP:  86;

TAOS           FAIR      81  23  12 S8G21       N/A
ANGEL FIRE     FAIR      72  29  20 W14G20    30.23S

$$
NMZ402-403-502-505>509-281900-
WESTCENTRAL MOUNTAINS/SOUTHWEST MOUNTAINS

CITY           SKY/WX    TMP DP  RH WIND       PRES   REMARKS
GALLUP         FAIR      83  14   7 SW21G28   30.14F
6HR MIN TEMP:  50; 6HR MAX TEMP:  84;

GRANTS         FAIR      84  15   7 W7G18     30.16F
SILVER CITY    FAIR      86  30  13 NW14G26   30.12F

$$
NMZ407-409-411-412-281900-
SOUTHERN DESERTS

CITY           SKY/WX    TMP DP  RH WIND       PRES   REMARKS
DEMING         FAIR      93  34  12 W14G24    30.02F
6HR MIN TEMP:  67; 6HR MAX TEMP:  94;

LAS CRUCES     FAIR      93  28   9 W12       30.03F
HOLLOMAN AFB   FAIR      97  32  10 W3        30.00S
ALAMOGORDO     FAIR      91  36  14 N6        29.99F
T OR C         FAIR      91  24   9 NW9       30.03F
6HR MIN TEMP:  62; 6HR MAX TEMP:  92;


$$
NMZ519>523-281900-
CENTRAL VALLEYS/CENTRAL HIGHLANDS

CITY           SKY/WX    TMP DP  RH WIND       PRES   REMARKS
ALBUQUERQUE    CLOUDY    85  19   9 CALM      30.06F
6HR MIN TEMP:  64; 6HR MAX TEMP:  85;

DOUBLE EAGLE   SUNNY     86  21   9 SW5       30.09F
MORIARTY ARPT  FAIR      87  23   9 W16G24    30.11S
6HR MIN TEMP:  50; 6HR MAX TEMP:  88;

CLINES CORNERS FAIR      82  18   9 W13G25    30.16F
6HR MIN TEMP:  53; 6HR MAX TEMP:  83;

BELEN          FAIR      90  15   6 W12G17    30.04F
6HR MIN TEMP:  61; 6HR MAX TEMP:  90;

SOCORRO        FAIR      85  35  16 S10       30.04F
6HR MIN TEMP:  56; 6HR MAX TEMP:  86;


$$
NMZ524>526-539-540-281900-
SOUTHCENTRAL MOUNTAINS

CITY           SKY/WX    TMP DP  RH WIND       PRES   REMARKS
RUIDOSO        FAIR      81  34  18 NW14G26   30.18S

$$
NMZ527>531-281900-
NORTHEAST HIGHLANDS/NORTHEAST PLAINS

CITY           SKY/WX    TMP DP  RH WIND       PRES   REMARKS
RATON          FAIR      86  33  15 MISG      30.02F
6HR MIN TEMP:  49; 6HR MAX TEMP:  87;

CLAYTON        FAIR      88  49  25 N12       29.95S
6HR MIN TEMP:  63; 6HR MAX TEMP:  88;


$$
NMZ532>537-281900-
EASTCENTRAL PLAINS

CITY           SKY/WX    TMP DP  RH WIND       PRES   REMARKS
SANTA ROSA     FAIR      95  24   8 W17G25    29.93F
TUCUMCARI      FAIR      95  35  12 NW8       29.86F
6HR MIN TEMP:  71; 6HR MAX TEMP:  95;

CANNON AFB     FAIR      90  49  24 SW16G23   29.94S
6HR MIN TEMP:  67; 6HR MAX TEMP:  90;

CLOVIS AIRPORT FAIR      92  49  22 W15G21    29.94S

$$
NMZ028-029-538-281900-
SOUTHEAST PLAINS

CITY           SKY/WX    TMP DP  RH WIND       PRES   REMARKS
ROSWELL        FAIR      96  48  19 VRB3      29.90F
6HR MIN TEMP:  69; 6HR MAX TEMP:  96;

ARTESIA        FAIR      97  52  21 W9G15     29.89F
CARLSBAD       FAIR      96  55  25 CALM      29.87F
6HR MIN TEMP:  70; 6HR MAX TEMP:  96;

HOBBS          SUNNY     90  59  35 S10G17    29.94F


$$




USA.gov is the U.S. government's official web portal to all federal, state and local government web resources and services.